Wetterdaten: Mittwoch, 08.04.2015
Datum Zeit Auen-Temp. Temp gefhlt Luftfeuchte Luftdruck Regen Wind Richtung Richtung Taupunkt Windben
08.04.2015 00:00 -1,7 C -2,4 C 81 % 1031,4 hPa 0,0 mm 0,0 km/h (0 Bft) NO 45 -4,5 C 0,0 km/h (0 Bft)
08.04.2015 00:05 -1,6 C -2,3 C 81 % 1031,3 hPa 0,0 mm 0,0 km/h (0 Bft) O-SO 112 -4,4 C 0,0 km/h (0 Bft)
08.04.2015 00:10 -1,6 C -2,3 C 81 % 1031,3 hPa 0,0 mm 0,0 km/h (0 Bft) S-SO 157 -4,4 C 0,0 km/h (0 Bft)
08.04.2015 00:15 -2,2 C -2,8 C 80 % 1031,3 hPa 0,0 mm 0,0 km/h (0 Bft) SO 135 -5,2 C 0,0 km/h (0 Bft)
08.04.2015 00:20 -2,0 C -2,6 C 81 % 1031,3 hPa 0,0 mm 0,0 km/h (0 Bft) NO 45 -4,8 C 0,0 km/h (0 Bft)
08.04.2015 00:25 -2,3 C -2,9 C 80 % 1031,2 hPa 0,0 mm 0,0 km/h (0 Bft) N-NO 22 -5,3 C 0,0 km/h (0 Bft)
08.04.2015 00:30 -2,2 C -2,8 C 80 % 1031,2 hPa 0,0 mm 0,0 km/h (0 Bft) NO 45 -5,2 C 0,0 km/h (0 Bft)
08.04.2015 00:35 -2,2 C -2,9 C 81 % 1031,2 hPa 0,0 mm 0,0 km/h (0 Bft) SO 135 -5,0 C 0,0 km/h (0 Bft)
08.04.2015 00:40 -2,2 C -2,9 C 80 % 1031,2 hPa 0,0 mm 0,0 km/h (0 Bft) N-NO 22 -5,2 C 0,0 km/h (0 Bft)
08.04.2015 00:45 -2,2 C -2,9 C 80 % 1030,9 hPa 0,0 mm 0,0 km/h (0 Bft) N-NO 22 -5,2 C 0,0 km/h (0 Bft)
08.04.2015 00:50 -2,0 C -2,7 C 81 % 1030,9 hPa 0,0 mm 0,0 km/h (0 Bft) O-NO 67 -4,8 C 0,0 km/h (0 Bft)
08.04.2015 00:55 -2,0 C -2,7 C 81 % 1030,9 hPa 0,0 mm 0,0 km/h (0 Bft) W-SW 247 -4,8 C 0,0 km/h (0 Bft)
08.04.2015 01:00 -1,9 C -2,7 C 81 % 1030,9 hPa 0,0 mm 0,0 km/h (0 Bft) SO 135 -4,7 C 0,0 km/h (0 Bft)
08.04.2015 01:05 -2,0 C -2,7 C 81 % 1030,9 hPa 0,0 mm 0,0 km/h (0 Bft) O 90 -4,8 C 0,0 km/h (0 Bft)
08.04.2015 01:10 -2,0 C -2,7 C 81 % 1030,9 hPa 0,0 mm 0,0 km/h (0 Bft) O-SO 112 -4,8 C 0,0 km/h (0 Bft)
08.04.2015 01:15 -2,0 C -2,7 C 81 % 1030,9 hPa 0,0 mm 0,0 km/h (0 Bft) SO 135 -4,8 C 0,0 km/h (0 Bft)
08.04.2015 01:20 -1,9 C -2,7 C 81 % 1030,9 hPa 0,0 mm 0,0 km/h (0 Bft) O 90 -4,7 C 0,0 km/h (0 Bft)
08.04.2015 01:25 -2,0 C -2,7 C 81 % 1031,1 hPa 0,0 mm 0,0 km/h (0 Bft) O-SO 112 -4,8 C 0,0 km/h (0 Bft)
08.04.2015 01:30 -2,0 C -2,7 C 81 % 1031,1 hPa 0,0 mm 0,0 km/h (0 Bft) NO 45 -4,8 C 0,0 km/h (0 Bft)
08.04.2015 01:35 -2,1 C -2,8 C 80 % 1031,1 hPa 0,0 mm 0,0 km/h (0 Bft) SW 225 -5,1 C 0,0 km/h (0 Bft)
08.04.2015 01:40 -2,0 C -2,7 C 80 % 1031,1 hPa 0,0 mm 0,0 km/h (0 Bft) SO 135 -5,0 C 0,0 km/h (0 Bft)
08.04.2015 01:45 -2,0 C -2,7 C 80 % 1031,1 hPa 0,0 mm 0,0 km/h (0 Bft) S-SO 157 -5,0 C 0,0 km/h (0 Bft)
08.04.2015 01:50 -2,3 C -2,9 C 80 % 1031,1 hPa 0,0 mm 0,0 km/h (0 Bft) SO 135 -5,3 C 0,0 km/h (0 Bft)
08.04.2015 01:55 -2,2 C -2,9 C 80 % 1031,1 hPa 0,0 mm 0,0 km/h (0 Bft) N-NO 22 -5,2 C 0,0 km/h (0 Bft)
08.04.2015 02:00 -2,3 C -3,0 C 80 % 1031,1 hPa 0,0 mm 0,0 km/h (0 Bft) S 180 -5,3 C 0,0 km/h (0 Bft)
08.04.2015 02:05 -2,1 C -2,8 C 80 % 1031,1 hPa 0,0 mm 0,0 km/h (0 Bft) O-SO 112 -5,1 C 0,0 km/h (0 Bft)
08.04.2015 02:10 -2,1 C -2,8 C 80 % 1031,1 hPa 0,0 mm 0,0 km/h (0 Bft) W-NW 292 -5,1 C 0,0 km/h (0 Bft)
08.04.2015 02:15 -2,1 C -2,8 C 80 % 1031,1 hPa 0,0 mm 0,0 km/h (0 Bft) N 360 -5,1 C 0,0 km/h (0 Bft)
08.04.2015 02:20 -2,1 C -2,8 C 80 % 1031,1 hPa 0,0 mm 0,0 km/h (0 Bft) O 90 -5,1 C 0,0 km/h (0 Bft)
08.04.2015 02:25 -2,1 C -2,8 C 80 % 1030,9 hPa 0,0 mm 0,0 km/h (0 Bft) O-SO 112 -5,1 C 0,0 km/h (0 Bft)
08.04.2015 02:30 -2,1 C -2,8 C 80 % 1030,9 hPa 0,0 mm 0,0 km/h (0 Bft) O-SO 112 -5,1 C 0,0 km/h (0 Bft)
08.04.2015 02:35 -2,2 C -2,9 C 80 % 1030,9 hPa 0,0 mm 0,0 km/h (0 Bft) S-SO 157 -5,2 C 0,0 km/h (0 Bft)
08.04.2015 02:40 -2,1 C -2,9 C 80 % 1030,9 hPa 0,0 mm 0,0 km/h (0 Bft) S 180 -5,1 C 0,0 km/h (0 Bft)
08.04.2015 02:45 -2,0 C -2,8 C 80 % 1030,7 hPa 0,0 mm 0,0 km/h (0 Bft) NO 45 -5,0 C 0,0 km/h (0 Bft)
08.04.2015 02:50 -2,0 C -2,8 C 80 % 1030,7 hPa 0,0 mm 0,0 km/h (0 Bft) N-NO 22 -5,0 C 0,0 km/h (0 Bft)
08.04.2015 02:55 -2,2 C -2,9 C 79 % 1030,7 hPa 0,0 mm 0,0 km/h (0 Bft) SO 135 -5,3 C 0,0 km/h (0 Bft)
08.04.2015 03:00 -2,4 C -3,0 C 79 % 1030,7 hPa 0,0 mm 0,0 km/h (0 Bft) NW 315 -5,5 C 0,0 km/h (0 Bft)
08.04.2015 03:05 -2,3 C -3,0 C 79 % 1030,6 hPa 0,0 mm 0,0 km/h (0 Bft) NW 315 -5,4 C 0,0 km/h (0 Bft)
08.04.2015 03:10 -2,4 C -3,0 C 79 % 1030,6 hPa 0,0 mm 0,0 km/h (0 Bft) N-NW 337 -5,5 C 0,0 km/h (0 Bft)
08.04.2015 03:15 -2,3 C -2,9 C 79 % 1030,6 hPa 0,0 mm 0,0 km/h (0 Bft) O-NO 67 -5,4 C 0,0 km/h (0 Bft)
08.04.2015 03:20 -2,3 C -2,9 C 79 % 1030,6 hPa 0,0 mm 0,0 km/h (0 Bft) NW 315 -5,4 C 0,0 km/h (0 Bft)
08.04.2015 03:25 -2,1 C -2,8 C 79 % 1030,3 hPa 0,0 mm 0,0 km/h (0 Bft) NW 315 -5,2 C 0,0 km/h (0 Bft)
08.04.2015 03:30 -2,0 C -2,7 C 79 % 1030,3 hPa 0,0 mm 0,0 km/h (0 Bft) O-SO 112 -5,1 C 0,0 km/h (0 Bft)
08.04.2015 03:35 -2,1 C -2,8 C 79 % 1030,3 hPa 0,0 mm 0,0 km/h (0 Bft) N-NO 22 -5,2 C 0,0 km/h (0 Bft)
08.04.2015 03:40 -2,2 C -2,9 C 79 % 1030,3 hPa 0,0 mm 0,0 km/h (0 Bft) NO 45 -5,3 C 0,0 km/h (0 Bft)
08.04.2015 03:45 -2,6 C -3,2 C 78 % 1030,1 hPa 0,0 mm 0,0 km/h (0 Bft) NO 45 -5,9 C 0,0 km/h (0 Bft)
08.04.2015 03:50 -2,6 C -3,3 C 78 % 1030,1 hPa 0,0 mm 0,0 km/h (0 Bft) NW 315 -5,9 C 0,0 km/h (0 Bft)
08.04.2015 03:55 -2,7 C -3,3 C 78 % 1030,1 hPa 0,0 mm 0,0 km/h (0 Bft) N 360 -6,0 C 0,0 km/h (0 Bft)
08.04.2015 04:00 -2,7 C -3,3 C 78 % 1030,1 hPa 0,0 mm 0,0 km/h (0 Bft) O-SO 112 -6,0 C 0,0 km/h (0 Bft)
08.04.2015 04:05 -2,7 C -3,3 C 78 % 1030,1 hPa 0,0 mm 0,0 km/h (0 Bft) O-NO 67 -6,0 C 0,0 km/h (0 Bft)
08.04.2015 04:10 -2,6 C -3,2 C 78 % 1030,1 hPa 0,0 mm 0,0 km/h (0 Bft) NO 45 -5,9 C 0,0 km/h (0 Bft)
08.04.2015 04:15 -2,5 C -3,2 C 78 % 1030,1 hPa 0,0 mm 0,0 km/h (0 Bft) O-NO 67 -5,8 C 0,0 km/h (0 Bft)
08.04.2015 04:20 -2,3 C -3,0 C 78 % 1030,1 hPa 0,0 mm 0,0 km/h (0 Bft) O-SO 112 -5,6 C 0,0 km/h (0 Bft)
08.04.2015 04:25 -2,4 C -3,1 C 78 % 1030,0 hPa 0,0 mm 0,0 km/h (0 Bft) W 270 -5,7 C 0,0 km/h (0 Bft)
08.04.2015 04:30 -2,5 C -3,1 C 78 % 1030,0 hPa 0,0 mm 0,0 km/h (0 Bft) NW 315 -5,8 C 0,0 km/h (0 Bft)
08.04.2015 04:35 -2,5 C -3,2 C 78 % 1030,0 hPa 0,0 mm 0,0 km/h (0 Bft) SO 135 -5,8 C 0,0 km/h (0 Bft)
08.04.2015 04:40 -2,4 C -3,1 C 78 % 1030,0 hPa 0,0 mm 0,0 km/h (0 Bft) O-SO 112 -5,7 C 0,0 km/h (0 Bft)
08.04.2015 04:45 -2,8 C -3,4 C 77 % 1029,8 hPa 0,0 mm 0,0 km/h (0 Bft) NW 315 -6,3 C 0,0 km/h (0 Bft)
08.04.2015 04:50 -2,6 C -3,3 C 77 % 1029,8 hPa 0,0 mm 0,0 km/h (0 Bft) N-NW 337 -6,1 C 0,0 km/h (0 Bft)
08.04.2015 04:55 -2,5 C -3,2 C 78 % 1029,8 hPa 0,0 mm 0,0 km/h (0 Bft) O-SO 112 -5,8 C 0,0 km/h (0 Bft)
08.04.2015 05:00 -2,6 C -3,3 C 77 % 1029,8 hPa 0,0 mm 0,0 km/h (0 Bft) S-SO 157 -6,1 C 0,0 km/h (0 Bft)
08.04.2015 05:05 -2,4 C -3,2 C 77 % 1029,8 hPa 0,0 mm 0,0 km/h (0 Bft) O-NO 67 -5,9 C 0,0 km/h (0 Bft)
08.04.2015 05:10 -2,4 C -3,2 C 77 % 1029,8 hPa 0,0 mm 0,0 km/h (0 Bft) O 90 -5,9 C 0,0 km/h (0 Bft)
08.04.2015 05:15 -2,6 C -3,3 C 77 % 1029,8 hPa 0,0 mm 0,0 km/h (0 Bft) O-SO 112 -6,1 C 0,0 km/h (0 Bft)
08.04.2015 05:20 -2,8 C -3,5 C 77 % 1029,8 hPa 0,0 mm 0,0 km/h (0 Bft) S-SW 202 -6,3 C 0,0 km/h (0 Bft)
08.04.2015 05:25 -2,7 C -3,4 C 77 % 1029,9 hPa 0,0 mm 0,0 km/h (0 Bft) O-NO 67 -6,2 C 0,0 km/h (0 Bft)
08.04.2015 05:30 -2,8 C -3,5 C 77 % 1029,9 hPa 0,0 mm 0,0 km/h (0 Bft) O 90 -6,3 C 0,0 km/h (0 Bft)
08.04.2015 05:35 -2,9 C -3,6 C 77 % 1029,9 hPa 0,0 mm 0,0 km/h (0 Bft) SO 135 -6,4 C 0,0 km/h (0 Bft)
08.04.2015 05:40 -3,2 C -3,8 C 76 % 1029,9 hPa 0,0 mm 0,0 km/h (0 Bft) W-NW 292 -6,8 C 0,0 km/h (0 Bft)
08.04.2015 05:45 -2,9 C -3,6 C 77 % 1029,8 hPa 0,0 mm 0,0 km/h (0 Bft) S-SW 202 -6,4 C 0,0 km/h (0 Bft)
08.04.2015 05:50 -3,0 C -3,7 C 77 % 1029,8 hPa 0,0 mm 0,0 km/h (0 Bft) O-NO 67 -6,4 C 0,0 km/h (0 Bft)
08.04.2015 05:55 -2,8 C -3,6 C 77 % 1029,8 hPa 0,0 mm 0,0 km/h (0 Bft) NO 45 -6,3 C 0,0 km/h (0 Bft)
08.04.2015 06:00 -2,8 C -3,5 C 77 % 1029,8 hPa 0,0 mm 0,0 km/h (0 Bft) O 90 -6,3 C 0,0 km/h (0 Bft)
08.04.2015 06:05 -2,7 C -3,5 C 77 % 1029,8 hPa 0,0 mm 0,0 km/h (0 Bft) S-SO 157 -6,2 C 0,0 km/h (0 Bft)
08.04.2015 06:10 -2,8 C -3,5 C 76 % 1029,8 hPa 0,0 mm 0,0 km/h (0 Bft) SO 135 -6,4 C 0,0 km/h (0 Bft)
08.04.2015 06:15 -2,8 C -3,5 C 76 % 1029,8 hPa 0,0 mm 0,0 km/h (0 Bft) SO 135 -6,4 C 0,0 km/h (0 Bft)
08.04.2015 06:20 -2,9 C -3,6 C 76 % 1029,8 hPa 0,0 mm 0,0 km/h (0 Bft) N-NW 337 -6,5 C 0,0 km/h (0 Bft)
08.04.2015 06:25 -2,8 C -3,5 C 76 % 1029,6 hPa 0,0 mm 0,0 km/h (0 Bft) NO 45 -6,4 C 0,0 km/h (0 Bft)
08.04.2015 06:30 -2,7 C -3,5 C 76 % 1029,6 hPa 0,0 mm 0,0 km/h (0 Bft) O-SO 112 -6,3 C 0,0 km/h (0 Bft)
08.04.2015 06:35 -2,8 C -3,5 C 75 % 1029,6 hPa 0,0 mm 0,0 km/h (0 Bft) NO 45 -6,6 C 0,0 km/h (0 Bft)
08.04.2015 06:40 -2,8 C -3,5 C 75 % 1029,6 hPa 0,0 mm 0,0 km/h (0 Bft) O-NO 67 -6,6 C 2,8 km/h (1 Bft)
08.04.2015 06:45 -2,8 C -3,5 C 75 % 1029,8 hPa 0,0 mm 0,0 km/h (0 Bft) O 90 -6,6 C 0,0 km/h (0 Bft)
08.04.2015 06:50 -2,7 C -3,4 C 75 % 1029,8 hPa 0,0 mm 0,0 km/h (0 Bft) S-SO 157 -6,5 C 0,0 km/h (0 Bft)
08.04.2015 06:55 -2,6 C -3,3 C 75 % 1029,8 hPa 0,0 mm 0,0 km/h (0 Bft) S-SO 157 -6,4 C 0,0 km/h (0 Bft)
08.04.2015 07:00 -2,6 C -3,3 C 75 % 1029,8 hPa 0,0 mm 0,0 km/h (0 Bft) SO 135 -6,4 C 0,0 km/h (0 Bft)
08.04.2015 07:05 -2,4 C -3,1 C 75 % 1029,7 hPa 0,0 mm 0,0 km/h (0 Bft) NW 315 -6,2 C 3,4 km/h (1 Bft)
08.04.2015 07:10 -2,3 C -3,0 C 74 % 1029,7 hPa 0,0 mm 0,3 km/h (0 Bft) O-SO 112 -6,3 C 0,0 km/h (0 Bft)
08.04.2015 07:15 -2,2 C -2,9 C 74 % 1029,7 hPa 0,0 mm 0,3 km/h (0 Bft) O-NO 67 -6,2 C 0,0 km/h (0 Bft)
08.04.2015 07:20 -2,2 C -2,8 C 73 % 1029,7 hPa 0,0 mm 0,0 km/h (0 Bft) O-NO 67 -6,4 C 0,0 km/h (0 Bft)
08.04.2015 07:25 -2,1 C -2,7 C 73 % 1030,0 hPa 0,0 mm 0,0 km/h (0 Bft) SO 135 -6,3 C 0,0 km/h (0 Bft)
08.04.2015 07:30 -2,0 C -2,5 C 73 % 1030,0 hPa 0,0 mm 0,0 km/h (0 Bft) NO 45 -6,2 C 0,0 km/h (0 Bft)
08.04.2015 07:35 -2,0 C -2,4 C 72 % 1030,0 hPa 0,0 mm 0,0 km/h (0 Bft) O 90 -6,4 C 0,0 km/h (0 Bft)
08.04.2015 07:40 -1,9 C -2,3 C 72 % 1030,0 hPa 0,0 mm 0,0 km/h (0 Bft) NO 45 -6,3 C 0,0 km/h (0 Bft)
08.04.2015 07:45 -1,9 C -2,1 C 72 % 1030,0 hPa 0,0 mm 0,0 km/h (0 Bft) O-NO 67 -6,3 C 0,0 km/h (0 Bft)
08.04.2015 07:50 -1,8 C -1,9 C 71 % 1030,0 hPa 0,0 mm 0,0 km/h (0 Bft) SW 225 -6,3 C 0,0 km/h (0 Bft)
08.04.2015 07:55 -1,8 C -1,9 C 71 % 1030,0 hPa 0,0 mm 0,0 km/h (0 Bft) S 180 -6,3 C 0,0 km/h (0 Bft)
08.04.2015 08:00 -1,6 C -1,6 C 71 % 1030,0 hPa 0,0 mm 0,0 km/h (0 Bft) O-NO 67 -6,2 C 0,0 km/h (0 Bft)
08.04.2015 08:05 -1,4 C -0,2 C 71 % 1030,1 hPa 0,0 mm 0,3 km/h (0 Bft) S 180 -6,0 C 3,6 km/h (1 Bft)
08.04.2015 08:10 -1,3 C 1,5 C 70 % 1030,1 hPa 0,0 mm 0,3 km/h (0 Bft) W 270 -6,0 C 0,0 km/h (0 Bft)
08.04.2015 08:15 -0,8 C 3,7 C 70 % 1030,1 hPa 0,0 mm 0,0 km/h (0 Bft) O-SO 112 -5,6 C 0,0 km/h (0 Bft)
08.04.2015 08:20 -0,4 C 4,1 C 69 % 1030,1 hPa 0,0 mm 0,0 km/h (0 Bft) O-NO 67 -5,4 C 0,0 km/h (0 Bft)
08.04.2015 08:25 0,3 C 5,8 C 69 % 1030,4 hPa 0,0 mm 0,0 km/h (0 Bft) NO 45 -4,7 C 0,0 km/h (0 Bft)
08.04.2015 08:30 0,7 C 7,4 C 68 % 1030,4 hPa 0,0 mm 0,0 km/h (0 Bft) S-SW 202 -4,5 C 0,0 km/h (0 Bft)
08.04.2015 08:35 1,0 C 8,8 C 67 % 1030,4 hPa 0,0 mm 0,0 km/h (0 Bft) O 90 -4,4 C 0,0 km/h (0 Bft)
08.04.2015 08:40 1,3 C 9,7 C 66 % 1030,4 hPa 0,0 mm 0,3 km/h (0 Bft) NO 45 -4,3 C 0,0 km/h (0 Bft)
08.04.2015 08:45 1,8 C 10,8 C 66 % 1030,5 hPa 0,0 mm 0,0 km/h (0 Bft) S-SO 157 -3,9 C 0,0 km/h (0 Bft)
08.04.2015 08:50 2,1 C 11,3 C 65 % 1030,5 hPa 0,0 mm 0,3 km/h (0 Bft) SW 225 -3,8 C 3,1 km/h (1 Bft)
08.04.2015 08:55 2,2 C 12,2 C 64 % 1030,5 hPa 0,0 mm 0,3 km/h (0 Bft) SO 135 -3,9 C 0,0 km/h (0 Bft)
08.04.2015 09:00 2,2 C 13,1 C 62 % 1030,5 hPa 0,0 mm 0,3 km/h (0 Bft) O-SO 112 -4,3 C 0,0 km/h (0 Bft)
08.04.2015 09:05 2,3 C 13,7 C 61 % 1030,6 hPa 0,0 mm 0,0 km/h (0 Bft) SW 225 -4,4 C 0,0 km/h (0 Bft)
08.04.2015 09:10 2,4 C 14,3 C 61 % 1030,6 hPa 0,0 mm 0,0 km/h (0 Bft) N-NO 22 -4,3 C 0,0 km/h (0 Bft)
08.04.2015 09:15 3,0 C 15,1 C 59 % 1030,6 hPa 0,0 mm 0,0 km/h (0 Bft) SO 135 -4,2 C 0,0 km/h (0 Bft)
08.04.2015 09:20 3,2 C 15,4 C 59 % 1030,6 hPa 0,0 mm 0,0 km/h (0 Bft) S 180 -4,0 C 0,0 km/h (0 Bft)
08.04.2015 09:25 3,4 C 16,3 C 58 % 1030,8 hPa 0,0 mm 0,0 km/h (0 Bft) SO 135 -4,1 C 0,0 km/h (0 Bft)
08.04.2015 09:30 3,5 C 16,6 C 58 % 1030,8 hPa 0,0 mm 0,0 km/h (0 Bft) O-SO 112 -4,0 C 0,0 km/h (0 Bft)
08.04.2015 09:35 3,9 C 16,9 C 57 % 1030,8 hPa 0,0 mm 0,0 km/h (0 Bft) W-NW 292 -3,8 C 0,0 km/h (0 Bft)
08.04.2015 09:40 4,2 C 17,1 C 57 % 1030,8 hPa 0,0 mm 0,3 km/h (0 Bft) W-SW 247 -3,5 C 5,2 km/h (1 Bft)
08.04.2015 09:45 3,7 C 15,8 C 57 % 1031,1 hPa 0,0 mm 3,1 km/h (1 Bft) W-NW 292 -4,0 C 7,8 km/h (2 Bft)
08.04.2015 09:50 4,0 C 15,4 C 57 % 1031,1 hPa 0,0 mm 3,6 km/h (1 Bft) W-SW 247 -3,7 C 0,0 km/h (0 Bft)
08.04.2015 09:55 4,6 C 16,0 C 56 % 1031,1 hPa 0,0 mm 1,6 km/h (1 Bft) SW 225 -3,4 C 3,4 km/h (1 Bft)
08.04.2015 10:00 4,6 C 16,2 C 56 % 1031,1 hPa 0,0 mm 1,0 km/h (0 Bft) SW 225 -3,4 C 3,6 km/h (1 Bft)
08.04.2015 10:05 4,7 C 15,8 C 54 % 1031,1 hPa 0,0 mm 3,4 km/h (1 Bft) SW 225 -3,8 C 7,0 km/h (2 Bft)
08.04.2015 10:10 5,0 C 15,4 C 54 % 1031,1 hPa 0,0 mm 3,9 km/h (1 Bft) SW 225 -3,5 C 4,9 km/h (1 Bft)
08.04.2015 10:15 5,4 C 15,3 C 53 % 1031,1 hPa 0,0 mm 3,6 km/h (1 Bft) S-SW 202 -3,4 C 2,8 km/h (1 Bft)
08.04.2015 10:20 5,7 C 15,4 C 54 % 1031,1 hPa 0,0 mm 3,1 km/h (1 Bft) S 180 -2,9 C 2,8 km/h (1 Bft)
08.04.2015 10:25 5,9 C 16,1 C 53 % 1031,4 hPa 0,0 mm 1,8 km/h (1 Bft) S-SO 157 -2,9 C 0,0 km/h (0 Bft)
08.04.2015 10:30 6,3 C 17,1 C 52 % 1031,4 hPa 0,0 mm 0,5 km/h (0 Bft) SO 135 -2,8 C 0,0 km/h (0 Bft)
08.04.2015 10:35 6,5 C 16,9 C 51 % 1031,4 hPa 0,0 mm 1,6 km/h (1 Bft) W 270 -2,9 C 5,2 km/h (1 Bft)
08.04.2015 10:40 6,8 C 16,6 C 52 % 1031,4 hPa 0,0 mm 3,1 km/h (1 Bft) W 270 -2,4 C 6,5 km/h (2 Bft)
08.04.2015 10:45 7,3 C 15,6 C 51 % 1031,7 hPa 0,0 mm 4,9 km/h (1 Bft) NW 315 -2,2 C 10,6 km/h (2 Bft)
08.04.2015 10:50 7,3 C 15,0 C 50 % 1031,7 hPa 0,0 mm 6,2 km/h (2 Bft) W-SW 247 -2,4 C 3,1 km/h (1 Bft)
08.04.2015 10:55 7,6 C 14,4 C 50 % 1031,7 hPa 0,0 mm 6,2 km/h (2 Bft) NW 315 -2,1 C 12,7 km/h (3 Bft)
08.04.2015 11:00 7,8 C 14,7 C 50 % 1031,7 hPa 0,0 mm 4,9 km/h (1 Bft) NW 315 -2,0 C 4,4 km/h (1 Bft)
08.04.2015 11:05 8,0 C 14,8 C 50 % 1031,7 hPa 0,0 mm 5,2 km/h (1 Bft) W 270 -1,8 C 7,3 km/h (2 Bft)
08.04.2015 11:10 7,8 C 14,9 C 49 % 1031,7 hPa 0,0 mm 4,9 km/h (1 Bft) W-NW 292 -2,2 C 3,4 km/h (1 Bft)
08.04.2015 11:15 7,6 C 15,2 C 48 % 1031,7 hPa 0,0 mm 4,7 km/h (1 Bft) W 270 -2,7 C 5,4 km/h (1 Bft)
08.04.2015 11:20 8,1 C 15,6 C 48 % 1031,7 hPa 0,0 mm 3,6 km/h (1 Bft) W 270 -2,2 C 4,7 km/h (1 Bft)
08.04.2015 11:25 8,1 C 16,0 C 48 % 1032,1 hPa 0,0 mm 2,3 km/h (1 Bft) W 270 -2,2 C 0,0 km/h (0 Bft)
08.04.2015 11:30 8,3 C 15,9 C 48 % 1032,1 hPa 0,0 mm 4,4 km/h (1 Bft) NW 315 -2,1 C 9,1 km/h (2 Bft)
08.04.2015 11:35 8,4 C 15,1 C 48 % 1032,1 hPa 0,0 mm 5,7 km/h (1 Bft) W-SW 247 -2,0 C 6,0 km/h (2 Bft)
08.04.2015 11:40 8,7 C 15,2 C 48 % 1032,1 hPa 0,0 mm 6,0 km/h (2 Bft) W-NW 292 -1,7 C 10,9 km/h (2 Bft)
08.04.2015 11:45 8,6 C 14,8 C 48 % 1032,1 hPa 0,0 mm 6,2 km/h (2 Bft) W 270 -1,8 C 5,7 km/h (1 Bft)
08.04.2015 11:50 8,9 C 14,9 C 48 % 1032,1 hPa 0,0 mm 6,7 km/h (2 Bft) NW 315 -1,5 C 12,7 km/h (3 Bft)
08.04.2015 11:55 9,0 C 14,5 C 46 % 1032,1 hPa 0,0 mm 7,5 km/h (2 Bft) N-NO 22 -2,0 C 14,0 km/h (3 Bft)
08.04.2015 12:00 9,2 C 14,4 C 46 % 1032,1 hPa 0,0 mm 8,5 km/h (2 Bft) NW 315 -1,8 C 14,5 km/h (3 Bft)
08.04.2015 12:05 9,2 C 14,4 C 46 % 1032,4 hPa 0,0 mm 8,5 km/h (2 Bft) NW 315 -1,8 C 16,8 km/h (3 Bft)
08.04.2015 12:10 9,1 C 14,3 C 45 % 1032,4 hPa 0,0 mm 8,5 km/h (2 Bft) W-NW 292 -2,2 C 8,0 km/h (2 Bft)
08.04.2015 12:15 9,6 C 14,6 C 45 % 1032,4 hPa 0,0 mm 6,7 km/h (2 Bft) NW 315 -1,7 C 0,0 km/h (0 Bft)
08.04.2015 12:20 9,8 C 15,0 C 44 % 1032,4 hPa 0,0 mm 6,2 km/h (2 Bft) N-NO 22 -1,9 C 7,0 km/h (2 Bft)
08.04.2015 12:25 9,8 C 15,1 C 44 % 1032,6 hPa 0,0 mm 7,0 km/h (2 Bft) W 270 -1,9 C 11,7 km/h (2 Bft)
08.04.2015 12:30 9,8 C 15,2 C 44 % 1032,6 hPa 0,0 mm 6,7 km/h (2 Bft) SW 225 -1,9 C 6,2 km/h (2 Bft)
08.04.2015 12:35 9,9 C 15,7 C 43 % 1032,6 hPa 0,0 mm 6,2 km/h (2 Bft) W-NW 292 -2,1 C 14,5 km/h (3 Bft)
08.04.2015 12:40 9,8 C 15,6 C 41 % 1032,6 hPa 0,0 mm 6,2 km/h (2 Bft) W-SW 247 -2,8 C 6,2 km/h (2 Bft)
08.04.2015 12:45 10,2 C 15,2 C 42 % 1032,6 hPa 0,0 mm 7,8 km/h (2 Bft) W 270 -2,1 C 8,3 km/h (2 Bft)
08.04.2015 12:50 10,4 C 14,9 C 42 % 1032,6 hPa 0,0 mm 7,8 km/h (2 Bft) W 270 -1,9 C 7,8 km/h (2 Bft)
08.04.2015 12:55 9,8 C 14,0 C 39 % 1032,6 hPa 0,0 mm 7,0 km/h (2 Bft) NW 315 -3,5 C 9,3 km/h (2 Bft)
08.04.2015 13:00 10,3 C 13,4 C 41 % 1032,6 hPa 0,0 mm 6,7 km/h (2 Bft) W 270 -2,4 C 8,0 km/h (2 Bft)
08.04.2015 13:05 10,4 C 13,2 C 40 % 1032,8 hPa 0,0 mm 7,3 km/h (2 Bft) W 270 -2,6 C 9,3 km/h (2 Bft)
08.04.2015 13:10 10,5 C 12,8 C 39 % 1032,8 hPa 0,0 mm 8,5 km/h (2 Bft) NW 315 -2,9 C 9,6 km/h (2 Bft)
08.04.2015 13:15 10,9 C 13,3 C 39 % 1032,8 hPa 0,0 mm 9,8 km/h (2 Bft) W-NW 292 -2,5 C 16,3 km/h (3 Bft)
08.04.2015 13:20 10,7 C 13,8 C 39 % 1032,8 hPa 0,0 mm 9,6 km/h (2 Bft) W 270 -2,7 C 4,7 km/h (1 Bft)
08.04.2015 13:25 11,1 C 14,9 C 39 % 1032,9 hPa 0,0 mm 8,8 km/h (2 Bft) N-NW 337 -2,3 C 19,7 km/h (3 Bft)
08.04.2015 13:30 11,1 C 15,4 C 39 % 1032,9 hPa 0,0 mm 6,5 km/h (2 Bft) W 270 -2,3 C 8,3 km/h (2 Bft)
08.04.2015 13:35 10,6 C 15,7 C 37 % 1032,9 hPa 0,0 mm 7,3 km/h (2 Bft) SW 225 -3,5 C 4,7 km/h (1 Bft)
08.04.2015 13:40 10,7 C 15,7 C 37 % 1032,9 hPa 0,0 mm 7,5 km/h (2 Bft) S 180 -3,4 C 9,8 km/h (2 Bft)
08.04.2015 13:45 11,1 C 16,2 C 38 % 1032,7 hPa 0,0 mm 6,0 km/h (2 Bft) W 270 -2,7 C 9,6 km/h (2 Bft)
08.04.2015 13:50 10,8 C 16,3 C 35 % 1032,7 hPa 0,0 mm 7,0 km/h (2 Bft) S-SW 202 -4,0 C 11,9 km/h (2 Bft)
08.04.2015 13:55 11,3 C 16,4 C 36 % 1032,7 hPa 0,0 mm 6,5 km/h (2 Bft) N 360 -3,2 C 6,7 km/h (2 Bft)
08.04.2015 14:00 11,3 C 16,4 C 36 % 1032,7 hPa 0,0 mm 6,7 km/h (2 Bft) SW 225 -3,2 C 10,6 km/h (2 Bft)
08.04.2015 14:05 11,5 C 16,2 C 36 % 1032,6 hPa 0,0 mm 8,3 km/h (2 Bft) NW 315 -3,0 C 11,7 km/h (2 Bft)
08.04.2015 14:10 12,2 C 16,2 C 36 % 1032,6 hPa 0,0 mm 7,8 km/h (2 Bft) NW 315 -2,4 C 7,0 km/h (2 Bft)
08.04.2015 14:15 12,4 C 16,2 C 36 % 1032,6 hPa 0,0 mm 8,5 km/h (2 Bft) SO 135 -2,2 C 7,0 km/h (2 Bft)
08.04.2015 14:20 12,4 C 16,5 C 36 % 1032,6 hPa 0,0 mm 8,0 km/h (2 Bft) SW 225 -2,2 C 8,8 km/h (2 Bft)
08.04.2015 14:25 12,2 C 16,9 C 35 % 1032,2 hPa 0,0 mm 6,2 km/h (2 Bft) NW 315 -2,8 C 8,8 km/h (2 Bft)
08.04.2015 14:30 12,1 C 16,7 C 35 % 1032,2 hPa 0,0 mm 7,0 km/h (2 Bft) W 270 -2,9 C 8,8 km/h (2 Bft)
08.04.2015 14:35 12,5 C 16,3 C 35 % 1032,2 hPa 0,0 mm 9,3 km/h (2 Bft) W 270 -2,5 C 13,7 km/h (3 Bft)
08.04.2015 14:40 12,4 C 16,1 C 35 % 1032,2 hPa 0,0 mm 9,1 km/h (2 Bft) NW 315 -2,6 C 11,4 km/h (2 Bft)
08.04.2015 14:45 12,3 C 16,4 C 35 % 1032,0 hPa 0,0 mm 7,5 km/h (2 Bft) W 270 -2,7 C 10,6 km/h (2 Bft)
08.04.2015 14:50 12,4 C 16,3 C 35 % 1032,0 hPa 0,0 mm 8,5 km/h (2 Bft) N 360 -2,6 C 11,7 km/h (2 Bft)
08.04.2015 14:55 12,4 C 15,9 C 35 % 1032,0 hPa 0,0 mm 10,6 km/h (2 Bft) NW 315 -2,6 C 20,5 km/h (4 Bft)
08.04.2015 15:00 12,3 C 15,8 C 34 % 1032,0 hPa 0,0 mm 11,1 km/h (2 Bft) SW 225 -3,1 C 8,8 km/h (2 Bft)
08.04.2015 15:05 12,0 C 16,0 C 34 % 1031,1 hPa 0,0 mm 9,3 km/h (2 Bft) W-NW 292 -3,4 C 22,5 km/h (4 Bft)
08.04.2015 15:10 12,3 C 16,2 C 34 % 1031,1 hPa 0,0 mm 7,8 km/h (2 Bft) NW 315 -3,1 C 16,3 km/h (3 Bft)
08.04.2015 15:15 12,3 C 16,7 C 34 % 1031,1 hPa 0,0 mm 7,0 km/h (2 Bft) W 270 -3,1 C 12,7 km/h (3 Bft)
08.04.2015 15:20 12,6 C 16,8 C 34 % 1031,1 hPa 0,0 mm 7,0 km/h (2 Bft) N-NO 22 -2,8 C 9,1 km/h (2 Bft)
08.04.2015 15:25 12,8 C 16,8 C 34 % 1030,5 hPa 0,0 mm 8,0 km/h (2 Bft) NW 315 -2,7 C 9,8 km/h (2 Bft)
08.04.2015 15:30 12,5 C 16,8 C 33 % 1030,5 hPa 0,0 mm 8,0 km/h (2 Bft) SW 225 -3,3 C 9,3 km/h (2 Bft)
08.04.2015 15:35 12,1 C 16,8 C 34 % 1030,5 hPa 0,0 mm 7,0 km/h (2 Bft) W-SW 247 -3,3 C 8,0 km/h (2 Bft)
08.04.2015 15:40 12,5 C 16,8 C 34 % 1030,5 hPa 0,0 mm 8,5 km/h (2 Bft) W 270 -2,9 C 13,2 km/h (3 Bft)
08.04.2015 15:45 12,8 C 16,6 C 35 % 1030,2 hPa 0,0 mm 8,5 km/h (2 Bft) O-NO 67 -2,3 C 4,9 km/h (1 Bft)
08.04.2015 15:50 13,0 C 16,8 C 33 % 1030,2 hPa 0,0 mm 7,5 km/h (2 Bft) N 360 -2,9 C 7,0 km/h (2 Bft)
08.04.2015 15:55 12,9 C 16,6 C 35 % 1030,2 hPa 0,0 mm 9,1 km/h (2 Bft) N-NW 337 -2,2 C 7,5 km/h (2 Bft)
08.04.2015 16:00 12,9 C 16,6 C 34 % 1030,2 hPa 0,0 mm 8,3 km/h (2 Bft) NW 315 -2,6 C 8,8 km/h (2 Bft)
08.04.2015 16:05 12,7 C 16,8 C 34 % 1029,9 hPa 0,0 mm 7,0 km/h (2 Bft) NW 315 -2,7 C 9,3 km/h (2 Bft)
08.04.2015 16:10 12,8 C 16,8 C 35 % 1029,9 hPa 0,0 mm 8,0 km/h (2 Bft) W-SW 247 -2,3 C 7,5 km/h (2 Bft)
08.04.2015 16:15 12,3 C 16,8 C 35 % 1029,9 hPa 0,0 mm 6,7 km/h (2 Bft) W-NW 292 -2,7 C 7,3 km/h (2 Bft)
08.04.2015 16:20 12,7 C 17,2 C 35 % 1029,9 hPa 0,0 mm 5,7 km/h (1 Bft) NO 45 -2,4 C 8,5 km/h (2 Bft)
08.04.2015 16:25 13,0 C 17,2 C 33 % 1029,8 hPa 0,0 mm 7,0 km/h (2 Bft) N-NW 337 -2,9 C 14,0 km/h (3 Bft)
08.04.2015 16:30 13,0 C 17,0 C 33 % 1029,8 hPa 0,0 mm 8,0 km/h (2 Bft) N-NO 22 -2,9 C 7,8 km/h (2 Bft)
08.04.2015 16:35 12,7 C 16,6 C 34 % 1029,8 hPa 0,0 mm 9,8 km/h (2 Bft) N-NO 22 -2,7 C 11,9 km/h (2 Bft)
08.04.2015 16:40 12,7 C 16,6 C 35 % 1029,8 hPa 0,0 mm 8,0 km/h (2 Bft) N-NW 337 -2,4 C 11,9 km/h (2 Bft)
08.04.2015 16:45 12,5 C 16,5 C 35 % 1029,6 hPa 0,0 mm 7,8 km/h (2 Bft) NW 315 -2,5 C 6,7 km/h (2 Bft)
08.04.2015 16:50 12,3 C 16,5 C 35 % 1029,6 hPa 0,0 mm 7,8 km/h (2 Bft) N-NO 22 -2,7 C 8,3 km/h (2 Bft)
08.04.2015 16:55 12,2 C 15,8 C 35 % 1029,6 hPa 0,0 mm 5,4 km/h (1 Bft) N-NO 22 -2,8 C 11,4 km/h (2 Bft)
08.04.2015 17:00 12,1 C 15,0 C 35 % 1029,6 hPa 0,0 mm 6,2 km/h (2 Bft) N-NW 337 -2,9 C 10,4 km/h (2 Bft)
08.04.2015 17:05 12,2 C 14,6 C 35 % 1029,8 hPa 0,0 mm 5,7 km/h (1 Bft) NO 45 -2,8 C 3,9 km/h (1 Bft)
08.04.2015 17:10 12,1 C 14,5 C 35 % 1029,8 hPa 0,0 mm 4,1 km/h (1 Bft) NW 315 -2,9 C 7,5 km/h (2 Bft)
08.04.2015 17:15 12,1 C 14,3 C 35 % 1029,8 hPa 0,0 mm 4,7 km/h (1 Bft) W-SW 247 -2,9 C 4,9 km/h (1 Bft)
08.04.2015 17:20 11,8 C 13,8 C 35 % 1029,8 hPa 0,0 mm 4,1 km/h (1 Bft) NW 315 -3,1 C 4,1 km/h (1 Bft)
08.04.2015 17:25 12,0 C 13,3 C 35 % 1029,5 hPa 0,0 mm 5,4 km/h (1 Bft) W 270 -3,0 C 11,7 km/h (2 Bft)
08.04.2015 17:30 12,1 C 13,2 C 36 % 1029,5 hPa 0,0 mm 6,2 km/h (2 Bft) NW 315 -2,5 C 7,3 km/h (2 Bft)
08.04.2015 17:35 12,0 C 13,3 C 36 % 1029,5 hPa 0,0 mm 6,0 km/h (2 Bft) NW 315 -2,6 C 3,9 km/h (1 Bft)
08.04.2015 17:40 11,9 C 13,2 C 37 % 1029,5 hPa 0,0 mm 5,4 km/h (1 Bft) W 270 -2,3 C 5,2 km/h (1 Bft)
08.04.2015 17:45 11,3 C 12,9 C 36 % 1029,3 hPa 0,0 mm 3,9 km/h (1 Bft) W-SW 247 -3,2 C 4,7 km/h (1 Bft)
08.04.2015 17:50 11,1 C 12,9 C 36 % 1029,3 hPa 0,0 mm 2,3 km/h (1 Bft) SW 225 -3,4 C 2,8 km/h (1 Bft)
08.04.2015 17:55 11,3 C 12,9 C 37 % 1029,3 hPa 0,0 mm 5,4 km/h (1 Bft) NW 315 -2,8 C 8,3 km/h (2 Bft)
08.04.2015 18:00 11,4 C 12,5 C 37 % 1029,3 hPa 0,0 mm 6,2 km/h (2 Bft) NW 315 -2,8 C 5,4 km/h (1 Bft)
08.04.2015 18:05 11,4 C 12,5 C 38 % 1029,4 hPa 0,0 mm 5,7 km/h (1 Bft) W-NW 292 -2,4 C 9,1 km/h (2 Bft)
08.04.2015 18:10 11,3 C 12,5 C 38 % 1029,4 hPa 0,0 mm 5,2 km/h (1 Bft) NW 315 -2,5 C 0,0 km/h (0 Bft)
08.04.2015 18:15 10,9 C 12,2 C 39 % 1029,4 hPa 0,0 mm 4,4 km/h (1 Bft) NW 315 -2,5 C 7,8 km/h (2 Bft)
08.04.2015 18:20 10,9 C 12,7 C 39 % 1029,4 hPa 0,0 mm 3,4 km/h (1 Bft) NW 315 -2,5 C 6,2 km/h (2 Bft)
08.04.2015 18:25 11,0 C 12,5 C 39 % 1029,4 hPa 0,0 mm 4,1 km/h (1 Bft) N-NO 22 -2,4 C 6,7 km/h (2 Bft)
08.04.2015 18:30 10,9 C 12,1 C 39 % 1029,4 hPa 0,0 mm 4,7 km/h (1 Bft) N-NO 22 -2,5 C 9,1 km/h (2 Bft)
08.04.2015 18:35 10,6 C 12,0 C 40 % 1029,4 hPa 0,0 mm 5,4 km/h (1 Bft) O-NO 67 -2,4 C 7,3 km/h (2 Bft)
08.04.2015 18:40 10,6 C 11,9 C 41 % 1029,4 hPa 0,0 mm 4,7 km/h (1 Bft) O-NO 67 -2,1 C 5,4 km/h (1 Bft)
08.04.2015 18:45 10,3 C 11,3 C 42 % 1029,2 hPa 0,0 mm 4,1 km/h (1 Bft) N 360 -2,0 C 3,9 km/h (1 Bft)
08.04.2015 18:50 10,0 C 10,9 C 42 % 1029,2 hPa 0,0 mm 2,8 km/h (1 Bft) O-NO 67 -2,3 C 4,7 km/h (1 Bft)
08.04.2015 18:55 9,6 C 10,3 C 43 % 1029,2 hPa 0,0 mm 2,3 km/h (1 Bft) O 90 -2,4 C 4,4 km/h (1 Bft)
08.04.2015 19:00 9,6 C 10,1 C 43 % 1029,2 hPa 0,0 mm 2,3 km/h (1 Bft) O 90 -2,4 C 0,0 km/h (0 Bft)
08.04.2015 19:05 9,4 C 9,8 C 44 % 1029,4 hPa 0,0 mm 0,8 km/h (0 Bft) O-NO 67 -2,2 C 0,0 km/h (0 Bft)
08.04.2015 19:10 9,1 C 9,7 C 44 % 1029,4 hPa 0,0 mm 0,0 km/h (0 Bft) O-NO 67 -2,5 C 0,0 km/h (0 Bft)
08.04.2015 19:15 8,8 C 9,5 C 45 % 1029,4 hPa 0,0 mm 0,0 km/h (0 Bft) O-NO 67 -2,5 C 0,0 km/h (0 Bft)
08.04.2015 19:20 8,8 C 9,3 C 45 % 1029,4 hPa 0,0 mm 0,3 km/h (0 Bft) O-NO 67 -2,5 C 0,0 km/h (0 Bft)
08.04.2015 19:25 8,7 C 9,1 C 46 % 1029,4 hPa 0,0 mm 0,5 km/h (0 Bft) N-NO 22 -2,3 C 3,6 km/h (1 Bft)
08.04.2015 19:30 8,5 C 8,9 C 46 % 1029,4 hPa 0,0 mm 0,5 km/h (0 Bft) O-SO 112 -2,4 C 0,0 km/h (0 Bft)
08.04.2015 19:35 8,4 C 8,7 C 47 % 1029,4 hPa 0,0 mm 0,3 km/h (0 Bft) SO 135 -2,2 C 0,0 km/h (0 Bft)
08.04.2015 19:40 8,2 C 8,5 C 48 % 1029,4 hPa 0,0 mm 0,3 km/h (0 Bft) S-SO 157 -2,1 C 2,6 km/h (1 Bft)
08.04.2015 19:45 7,9 C 8,2 C 48 % 1029,2 hPa 0,0 mm 1,3 km/h (1 Bft) SO 135 -2,4 C 4,7 km/h (1 Bft)
08.04.2015 19:50 7,7 C 8,0 C 49 % 1029,2 hPa 0,0 mm 2,3 km/h (1 Bft) S 180 -2,3 C 4,1 km/h (1 Bft)
08.04.2015 19:55 7,1 C 7,3 C 50 % 1029,2 hPa 0,0 mm 3,4 km/h (1 Bft) S 180 -2,6 C 0,0 km/h (0 Bft)
08.04.2015 20:00 6,6 C 7,0 C 52 % 1029,2 hPa 0,0 mm 2,6 km/h (1 Bft) S-SO 157 -2,5 C 0,0 km/h (0 Bft)
08.04.2015 20:05 6,3 C 6,3 C 54 % 1029,6 hPa 0,0 mm 2,3 km/h (1 Bft) SO 135 -2,3 C 5,4 km/h (1 Bft)
08.04.2015 20:10 6,0 C 6,0 C 54 % 1029,6 hPa 0,0 mm 3,9 km/h (1 Bft) S-SO 157 -2,6 C 4,7 km/h (1 Bft)
08.04.2015 20:15 5,4 C 5,5 C 56 % 1029,6 hPa 0,0 mm 3,4 km/h (1 Bft) S 180 -2,7 C 3,6 km/h (1 Bft)
08.04.2015 20:20 5,2 C 5,2 C 57 % 1029,6 hPa 0,0 mm 2,8 km/h (1 Bft) S 180 -2,6 C 5,7 km/h (1 Bft)
08.04.2015 20:25 4,6 C 4,6 C 59 % 1029,8 hPa 0,0 mm 4,1 km/h (1 Bft) S 180 -2,7 C 4,7 km/h (1 Bft)
08.04.2015 20:30 4,4 C 4,3 C 59 % 1029,8 hPa 0,0 mm 3,4 km/h (1 Bft) S 180 -2,9 C 2,8 km/h (1 Bft)
08.04.2015 20:35 4,0 C 3,9 C 59 % 1029,8 hPa 0,0 mm 1,6 km/h (1 Bft) S 180 -3,3 C 0,0 km/h (0 Bft)
08.04.2015 20:40 4,0 C 3,7 C 61 % 1029,8 hPa 0,0 mm 0,8 km/h (0 Bft) S-SO 157 -2,8 C 0,0 km/h (0 Bft)
08.04.2015 20:45 3,9 C 3,5 C 61 % 1029,8 hPa 0,0 mm 0,3 km/h (0 Bft) S-SO 157 -2,9 C 0,0 km/h (0 Bft)
08.04.2015 20:50 3,9 C 3,4 C 61 % 1029,8 hPa 0,0 mm 0,0 km/h (0 Bft) SO 135 -2,9 C 0,0 km/h (0 Bft)
08.04.2015 20:55 3,9 C 3,2 C 61 % 1029,8 hPa 0,0 mm 0,0 km/h (0 Bft) S 180 -2,9 C 0,0 km/h (0 Bft)
08.04.2015 21:00 3,8 C 3,1 C 62 % 1029,8 hPa 0,0 mm 0,0 km/h (0 Bft) SO 135 -2,8 C 0,0 km/h (0 Bft)
08.04.2015 21:05 3,7 C 3,0 C 62 % 1029,8 hPa 0,0 mm 0,0 km/h (0 Bft) S 180 -2,9 C 0,0 km/h (0 Bft)
08.04.2015 21:10 3,6 C 2,9 C 62 % 1029,8 hPa 0,0 mm 0,0 km/h (0 Bft) SO 135 -3,0 C 0,0 km/h (0 Bft)
08.04.2015 21:15 3,1 C 2,5 C 62 % 1029,8 hPa 0,0 mm 0,0 km/h (0 Bft) O-SO 112 -3,5 C 0,0 km/h (0 Bft)
08.04.2015 21:20 2,9 C 2,3 C 64 % 1029,8 hPa 0,0 mm 0,0 km/h (0 Bft) O-SO 112 -3,2 C 0,0 km/h (0 Bft)
08.04.2015 21:25 2,4 C 1,9 C 63 % 1029,8 hPa 0,0 mm 0,0 km/h (0 Bft) O-SO 112 -3,9 C 0,0 km/h (0 Bft)
08.04.2015 21:30 2,3 C 1,8 C 64 % 1029,8 hPa 0,0 mm 0,0 km/h (0 Bft) O-SO 112 -3,8 C 0,0 km/h (0 Bft)
08.04.2015 21:35 2,2 C 1,7 C 64 % 1029,8 hPa 0,0 mm 0,0 km/h (0 Bft) O 90 -3,9 C 0,0 km/h (0 Bft)
08.04.2015 21:40 2,2 C 1,7 C 65 % 1029,8 hPa 0,0 mm 0,0 km/h (0 Bft) O 90 -3,7 C 0,0 km/h (0 Bft)
08.04.2015 21:45 1,8 C 1,3 C 65 % 1029,8 hPa 0,0 mm 0,0 km/h (0 Bft) O 90 -4,1 C 0,0 km/h (0 Bft)
08.04.2015 21:50 1,6 C 1,1 C 65 % 1029,8 hPa 0,0 mm 0,0 km/h (0 Bft) O 90 -4,3 C 0,0 km/h (0 Bft)
08.04.2015 21:55 1,4 C 0,9 C 66 % 1029,8 hPa 0,0 mm 0,0 km/h (0 Bft) O 90 -4,2 C 0,0 km/h (0 Bft)
08.04.2015 22:00 1,7 C 1,1 C 68 % 1029,8 hPa 0,0 mm 0,0 km/h (0 Bft) O 90 -3,6 C 0,0 km/h (0 Bft)
08.04.2015 22:05 1,6 C 1,0 C 69 % 1030,0 hPa 0,0 mm 0,0 km/h (0 Bft) O 90 -3,5 C 0,0 km/h (0 Bft)
08.04.2015 22:10 1,5 C 0,9 C 70 % 1030,0 hPa 0,0 mm 0,0 km/h (0 Bft) O 90 -3,4 C 0,0 km/h (0 Bft)
08.04.2015 22:15 1,3 C 0,7 C 70 % 1030,0 hPa 0,0 mm 0,0 km/h (0 Bft) O 90 -3,6 C 0,0 km/h (0 Bft)
08.04.2015 22:20 1,1 C 0,5 C 70 % 1030,0 hPa 0,0 mm 0,0 km/h (0 Bft) O 90 -3,7 C 0,0 km/h (0 Bft)
08.04.2015 22:25 0,8 C 0,2 C 70 % 1029,8 hPa 0,0 mm 0,0 km/h (0 Bft) O 90 -4,0 C 0,0 km/h (0 Bft)
08.04.2015 22:30 0,7 C 0,1 C 70 % 1029,8 hPa 0,0 mm 0,0 km/h (0 Bft) O 90 -4,1 C 0,0 km/h (0 Bft)
08.04.2015 22:35 0,8 C 0,1 C 70 % 1029,8 hPa 0,0 mm 0,0 km/h (0 Bft) O 90 -4,0 C 0,0 km/h (0 Bft)
08.04.2015 22:40 0,8 C 0,1 C 71 % 1029,8 hPa 0,0 mm 0,0 km/h (0 Bft) O 90 -3,8 C 0,0 km/h (0 Bft)
08.04.2015 22:45 0,7 C 0,0 C 71 % 1029,6 hPa 0,0 mm 0,0 km/h (0 Bft) O 90 -3,9 C 0,0 km/h (0 Bft)
08.04.2015 22:50 0,8 C 0,1 C 72 % 1029,6 hPa 0,0 mm 0,0 km/h (0 Bft) O 90 -3,7 C 0,0 km/h (0 Bft)
08.04.2015 22:55 0,6 C -0,1 C 72 % 1029,6 hPa 0,0 mm 0,0 km/h (0 Bft) O 90 -3,9 C 0,0 km/h (0 Bft)
08.04.2015 23:00 0,4 C -0,2 C 72 % 1029,6 hPa 0,0 mm 0,0 km/h (0 Bft) O 90 -4,0 C 0,0 km/h (0 Bft)
08.04.2015 23:05 0,7 C -0,1 C 73 % 1029,4 hPa 0,0 mm 0,0 km/h (0 Bft) O-NO 67 -3,6 C 0,0 km/h (0 Bft)
08.04.2015 23:10 0,5 C -0,2 C 73 % 1029,4 hPa 0,0 mm 0,0 km/h (0 Bft) O-NO 67 -3,8 C 0,0 km/h (0 Bft)
08.04.2015 23:15 0,5 C -0,2 C 73 % 1029,4 hPa 0,0 mm 0,0 km/h (0 Bft) NO 45 -3,8 C 0,0 km/h (0 Bft)
08.04.2015 23:20 0,7 C 0,0 C 74 % 1029,4 hPa 0,0 mm 0,0 km/h (0 Bft) O-NO 67 -3,4 C 0,0 km/h (0 Bft)
08.04.2015 23:25 0,3 C -0,3 C 73 % 1029,1 hPa 0,0 mm 0,0 km/h (0 Bft) O-NO 67 -4,0 C 0,0 km/h (0 Bft)
08.04.2015 23:30 0,2 C -0,4 C 73 % 1029,1 hPa 0,0 mm 0,0 km/h (0 Bft) O-NO 67 -4,1 C 0,0 km/h (0 Bft)
08.04.2015 23:35 0,2 C -0,5 C 73 % 1029,1 hPa 0,0 mm 0,0 km/h (0 Bft) NO 45 -4,1 C 0,0 km/h (0 Bft)
08.04.2015 23:40 0,2 C -0,5 C 74 % 1029,1 hPa 0,0 mm 0,0 km/h (0 Bft) O-NO 67 -3,9 C 0,0 km/h (0 Bft)
08.04.2015 23:45 -0,1 C -0,7 C 74 % 1029,1 hPa 0,0 mm 0,0 km/h (0 Bft) O-NO 67 -4,2 C 0,0 km/h (0 Bft)
08.04.2015 23:50 -0,2 C -0,8 C 74 % 1029,1 hPa 0,0 mm 0,0 km/h (0 Bft) O-NO 67 -4,3 C 0,0 km/h (0 Bft)
08.04.2015 23:55 0,2 C -0,5 C 75 % 1029,1 hPa 0,0 mm 0,0 km/h (0 Bft) NO 45 -3,7 C 0,0 km/h (0 Bft)
_ Min-Zeit 05:40 05:40 16:30 23:55 - 23:55 - - 05:40 23:55
Minimum _ -3,2 C -3,8 C 33 % 1029,1 hPa - 0,0 km/h (0 Bft) - - -6,8 C 0,0 km/h (0 Bft)
_ Max-Zeit 16:30 16:25 01:30 13:40 23:55 15:00 - - 11:50 15:05
Maximum _ 13,0 C 17,2 C 81 % 1032,9 hPa 0,0 mm 11,1 km/h
SW (2 Bft)
- - -1,5 C 22,5 km/h
W-NW (4 Bft)
Durchschnitt _ 4,0 C 6,2 C 59 % 1030,5 hPa #0,0 mm 2,5 km/h (1 Bft) NW - -3,9 C 3,3 km/h (1 Bft)